P/2021 N2 ( Fuls )

Japanese version
Home page
Updated on January 8, 2023

---------------------------------------------------------------------

* Profile

Discovery Date July 9, 2021
Magnitude 18.3 mag
Discoverer David Carson Fuls (Catalina Sky Survey)

* Pictures

* Orbital Elements

Epoch 2022 Aug. 9.0 TT = JDT 2459800.5
T 2021 Nov. 13.52308 TT                                 Rudenko
q   3.7968645            (2000.0)            P               Q
n   0.05397689     Peri.  177.38272     +0.77500065     -0.61378614
a   6.9342178      Node   221.74081     +0.57562978     +0.78388301
e   0.4524452      Incl.   13.06218     +0.26081477     +0.09377634
P  18.3
From 778 observations 2021 June 27-2022 Oct. 5, mean residual 0".3.

* Finding Charts

* Magnitudes Graph

        m1 = -44.5 + 5 log d + 100   log r(t - 30)  [ ,0]  (             - 2021 Nov. 13)
        m1 =   4.8 + 5 log d +  15.0 log r(t - 80)  [0, ]  (2021 Nov. 13 -             )

---------------------------------------------------------------------

The orbital elements are published on M.P.E.C. 2022-T100.
The charts are made with StellaNavigator Ver.10 (AstroArts).
The magnitudes graphs are made with Comet for Windows.

---------------------------------------------------------------------

Copyright(C) Seiichi Yoshida (comet@aerith.net). All rights reserved.